Simultaneous Nadir Overpasses (SNOs) Predictions

Prediction of SNOs between GOES-17 and AQUA Satellite Orbit:

Table of predicted SNOs for the next 14.0 days since TLE Epoch: 1/6/2024
Index Date Time (GOES-17) GOES-17 Lat,Lon AQUA Lat,Lon Distance(km) Time Diff (sec)
1 01/06/2024 09:14:48 0.01,-104.69 0.80,-108.30 411.10 80
2 01/08/2024 08:56:49 0.02,-104.68 -0.00,-104.56 14.16 80
3 01/10/2024 08:41:30 0.02,-104.67 -0.84,-100.82 439.03 80
4 01/10/2024 21:02:03 -0.02,-104.64 -0.29,-105.79 131.23 80
5 01/12/2024 20:49:24 -0.01,-104.63 0.53,-102.05 293.92 80
6 01/13/2024 09:09:50 0.01,-104.66 0.52,-107.00 265.87 80
7 01/15/2024 08:51:49 0.01,-104.65 -0.28,-103.25 159.66 80
8 01/15/2024 21:12:24 -0.01,-104.62 -0.77,-108.23 410.54 80
9 01/17/2024 20:59:42 -0.00,-104.62 0.00,-104.47 16.03 80
10 01/19/2024 20:44:20 -0.01,-104.61 0.81,-100.72 442.45 80
